Location: Unspecified
(43.4680°N, 87.1740°E)
Time: 17:55:41
(UTC+00:00)

ISS - Pass Details

Date: 03 October 2021
Orbit: 417 x 423 km, 51.6° (Epoch: 25 October)

Event Time Altitude Azimuth Distance (km) Brightness Sun altitude
Rises 13:41:38 0° 299° (WNW) 2,366 1.5 -21.1°
Reaches altitude 10° 13:43:46 10° 293° (WNW) 1,500 0.2 -21.5°
Enters shadow 13:46:49 47° 232° (SW) 567 -3.0 -22.0°
